Time,TemperatureF,DewpointF,PressureIn,WindDirection,WindDirectionDegrees,WindSpeedMPH,WindSpeedGustMPH,Humidity,HourlyPrecipIn,Conditions,Clouds,dailyrainin,SoftwareType,DateUTC
2013-06-21 00:02:00,77.6,68.0,29.99,SE,144,5.0,10.0,71,0.00,,,0.00,weatherlink.com 1.10,2013-06-21 05:02:00,
2013-06-21 00:17:00,77.5,67.0,30.01,South,175,3.0,8.0,71,0.00,,,0.00,weatherlink.com 1.10,2013-06-21 05:17:00,
2013-06-21 00:32:00,77.2,67.0,30.01,SSE,153,5.0,8.0,71,0.00,,,0.00,weatherlink.com 1.10,2013-06-21 05:32:00,
2013-06-21 00:47:00,77.1,67.0,30.02,SSE,155,3.0,7.0,71,0.00,,,0.00,weatherlink.com 1.10,2013-06-21 05:47:00,
2013-06-21 01:02:00,76.8,67.0,30.02,SSE,168,6.0,7.0,72,0.00,,,0.00,weatherlink.com 1.10,2013-06-21 06:02:00,
2013-06-21 01:17:00,76.4,67.0,30.02,SSE,159,3.0,7.0,73,0.00,,,0.00,weatherlink.com 1.10,2013-06-21 06:17:00,
2013-06-21 01:32:00,76.1,67.0,30.01,SSE,153,3.0,8.0,73,0.00,,,0.00,weatherlink.com 1.10,2013-06-21 06:32:00,
2013-06-21 01:47:00,76.0,67.0,30.01,SSE,163,4.0,7.0,74,0.00,,,0.00,weatherlink.com 1.10,2013-06-21 06:47:00,
2013-06-21 02:02:00,75.8,67.0,30.00,South,172,3.0,8.0,74,0.00,,,0.00,weatherlink.com 1.10,2013-06-21 07:02:00,
2013-06-21 02:17:00,75.6,67.0,30.00,South,180,6.0,9.0,74,0.00,,,0.00,weatherlink.com 1.10,2013-06-21 07:17:00,
2013-06-21 02:32:00,75.3,67.0,30.00,SSE,161,5.0,7.0,74,0.00,,,0.00,weatherlink.com 1.10,2013-06-21 07:32:00,
2013-06-21 02:47:00,74.9,67.0,30.00,SSE,155,4.0,7.0,75,0.00,,,0.00,weatherlink.com 1.10,2013-06-21 07:47:00,
2013-06-21 03:02:00,74.6,67.0,29.99,SSE,158,3.0,7.0,76,0.00,,,0.00,weatherlink.com 1.10,2013-06-21 08:02:00,
2013-06-21 03:17:00,74.4,67.0,29.99,SSE,157,5.0,9.0,77,0.00,,,0.00,weatherlink.com 1.10,2013-06-21 08:17:00,
2013-06-21 03:32:00,74.0,66.0,29.99,SSE,163,4.0,5.0,77,0.00,,,0.00,weatherlink.com 1.10,2013-06-21 08:32:00,
2013-06-21 03:48:00,73.7,66.0,29.98,South,178,4.0,8.0,78,0.00,,,0.00,weatherlink.com 1.10,2013-06-21 08:48:00,
2013-06-21 04:03:00,73.3,66.0,29.98,SSE,159,2.0,7.0,79,0.00,,,0.00,weatherlink.com 1.10,2013-06-21 09:03:00,
2013-06-21 04:18:00,73.1,67.0,29.98,South,180,2.0,7.0,80,0.00,,,0.00,weatherlink.com 1.10,2013-06-21 09:18:00,
2013-06-21 04:33:00,73.0,67.0,29.99,SSE,154,4.0,7.0,80,0.00,,,0.00,weatherlink.com 1.10,2013-06-21 09:33:00,
2013-06-21 04:48:00,73.0,67.0,29.99,SSE,153,6.0,7.0,80,0.00,,,0.00,weatherlink.com 1.10,2013-06-21 09:48:00,
2013-06-21 05:03:00,72.9,67.0,29.99,SSE,166,4.0,6.0,81,0.00,,,0.00,weatherlink.com 1.10,2013-06-21 10:03:00,
2013-06-21 05:18:00,72.7,67.0,29.99,South,175,4.0,6.0,81,0.00,,,0.00,weatherlink.com 1.10,2013-06-21 10:18:00,
2013-06-21 05:33:00,72.5,66.0,29.98,SSE,167,2.0,7.0,81,0.00,,,0.00,weatherlink.com 1.10,2013-06-21 10:33:00,
2013-06-21 05:48:00,72.3,67.0,29.99,SSE,159,1.0,7.0,82,0.00,,,0.00,weatherlink.com 1.10,2013-06-21 10:48:00,
2013-06-21 06:03:00,72.3,67.0,29.99,SSE,159,3.0,7.0,82,0.00,,,0.00,weatherlink.com 1.10,2013-06-21 11:03:00,
2013-06-21 06:18:00,72.5,67.0,29.99,SSE,161,2.0,6.0,82,0.00,,,0.00,weatherlink.com 1.10,2013-06-21 11:18:00,
2013-06-21 06:33:00,72.8,67.0,29.99,South,178,1.0,8.0,82,0.00,,,0.00,weatherlink.com 1.10,2013-06-21 11:33:00,
2013-06-21 06:48:00,73.2,67.0,30.00,South,173,3.0,6.0,82,0.00,,,0.00,weatherlink.com 1.10,2013-06-21 11:48:00,
2013-06-21 07:03:00,74.0,68.0,30.01,SSE,165,4.0,6.0,81,0.00,,,0.00,weatherlink.com 1.10,2013-06-21 12:03:00,
2013-06-21 07:18:00,74.5,68.0,30.01,South,184,2.0,6.0,80,0.00,,,0.00,weatherlink.com 1.10,2013-06-21 12:18:00,
2013-06-21 07:33:00,75.5,69.0,30.02,SSE,165,4.0,8.0,80,0.00,,,0.00,weatherlink.com 1.10,2013-06-21 12:33:00,
2013-06-21 07:48:00,75.7,69.0,30.01,SSE,158,4.0,10.0,80,0.00,,,0.00,weatherlink.com 1.10,2013-06-21 12:48:00,
2013-06-21 08:03:00,76.0,69.0,30.02,SSW,207,6.0,12.0,80,0.00,,,0.00,weatherlink.com 1.10,2013-06-21 13:03:00,
2013-06-21 08:18:00,77.1,70.0,30.02,SE,142,4.0,8.0,78,0.00,,,0.00,weatherlink.com 1.10,2013-06-21 13:18:00,
2013-06-21 08:33:00,78.5,70.0,30.02,South,182,8.0,11.0,76,0.00,,,0.00,weatherlink.com 1.10,2013-06-21 13:33:00,
2013-06-21 08:48:00,77.5,70.0,30.02,South,184,6.0,12.0,78,0.00,,,0.00,weatherlink.com 1.10,2013-06-21 13:48:00,
2013-06-21 09:03:00,77.3,71.0,30.02,South,183,4.0,9.0,80,0.00,,,0.00,weatherlink.com 1.10,2013-06-21 14:03:00,
2013-06-21 09:18:00,77.7,71.0,30.02,SSE,157,3.0,7.0,80,0.00,,,0.00,weatherlink.com 1.10,2013-06-21 14:18:00,
2013-06-21 09:33:00,80.5,73.0,30.01,SSE,164,6.0,11.0,77,0.00,,,0.00,weatherlink.com 1.10,2013-06-21 14:33:00,
2013-06-21 09:48:00,81.3,73.0,30.00,SE,136,5.0,10.0,75,0.00,,,0.00,weatherlink.com 1.10,2013-06-21 14:48:00,
2013-06-21 10:03:00,82.0,73.0,30.00,SSE,166,5.0,12.0,75,0.00,,,0.00,weatherlink.com 1.10,2013-06-21 15:03:00,
2013-06-21 10:18:00,82.4,74.0,29.99,South,186,2.0,15.0,76,0.00,,,0.00,weatherlink.com 1.10,2013-06-21 15:18:00,
2013-06-21 10:33:00,82.8,73.0,29.98,SW,221,7.0,19.0,73,0.00,,,0.00,weatherlink.com 1.10,2013-06-21 15:33:00,
2013-06-21 10:48:00,83.3,73.0,29.98,South,182,13.0,17.0,72,0.00,,,0.00,weatherlink.com 1.10,2013-06-21 15:48:00,
2013-06-21 11:04:00,84.0,75.0,29.99,SSW,192,7.0,13.0,75,0.00,,,0.00,weatherlink.com 1.10,2013-06-21 16:04:00,
2013-06-21 11:19:00,85.1,75.0,30.00,South,175,5.0,12.0,71,0.00,,,0.00,weatherlink.com 1.10,2013-06-21 16:19:00,
2013-06-21 11:34:00,86.1,76.0,29.99,SW,220,4.0,13.0,72,0.00,,,0.00,weatherlink.com 1.10,2013-06-21 16:34:00,
2013-06-21 11:49:00,86.6,75.0,29.99,SSE,167,5.0,12.0,69,0.00,,,0.00,weatherlink.com 1.10,2013-06-21 16:49:00,
2013-06-21 12:04:00,87.7,76.0,30.00,South,189,12.0,12.0,69,0.00,,,0.00,weatherlink.com 1.10,2013-06-21 17:04:00,
2013-06-21 12:19:00,87.3,74.0,30.00,SSW,200,6.0,14.0,65,0.00,,,0.00,weatherlink.com 1.10,2013-06-21 17:19:00,
2013-06-21 12:34:00,88.1,75.0,30.00,WSW,240,4.0,14.0,66,0.00,,,0.00,weatherlink.com 1.10,2013-06-21 17:34:00,
2013-06-21 12:49:00,88.4,74.0,30.00,SSW,200,6.0,13.0,63,0.00,,,0.00,weatherlink.com 1.10,2013-06-21 17:49:00,
2013-06-21 13:04:00,87.8,75.0,30.00,SW,216,3.0,14.0,66,0.00,,,0.00,weatherlink.com 1.10,2013-06-21 18:04:00,
2013-06-21 13:19:00,88.2,76.0,29.98,SSE,157,2.0,12.0,67,0.00,,,0.00,weatherlink.com 1.10,2013-06-21 18:19:00,
2013-06-21 13:34:00,88.5,75.0,29.98,South,173,10.0,16.0,64,0.00,,,0.00,weatherlink.com 1.10,2013-06-21 18:34:00,
2013-06-21 13:49:00,89.3,76.0,29.98,SW,221,12.0,12.0,65,0.00,,,0.00,weatherlink.com 1.10,2013-06-21 18:49:00,
2013-06-21 14:04:00,89.8,76.0,29.98,WSW,241,2.0,15.0,63,0.00,,,0.00,weatherlink.com 1.10,2013-06-21 19:04:00,
2013-06-21 14:19:00,89.1,75.0,29.97,SSE,153,13.0,16.0,63,0.00,,,0.00,weatherlink.com 1.10,2013-06-21 19:19:00,
2013-06-21 14:34:00,89.9,75.0,29.97,South,185,7.0,15.0,62,0.00,,,0.00,weatherlink.com 1.10,2013-06-21 19:34:00,
2013-06-21 14:49:00,89.8,76.0,29.96,South,177,5.0,14.0,63,0.00,,,0.00,weatherlink.com 1.10,2013-06-21 19:49:00,
2013-06-21 15:04:00,89.3,75.0,29.96,South,183,8.0,16.0,63,0.00,,,0.00,weatherlink.com 1.10,2013-06-21 20:04:00,
2013-06-21 15:19:00,89.4,75.0,29.96,SSE,153,11.0,18.0,63,0.00,,,0.00,weatherlink.com 1.10,2013-06-21 20:19:00,
2013-06-21 15:49:00,90.0,76.0,29.95,SSW,194,7.0,13.0,63,0.00,,,0.00,weatherlink.com 1.10,2013-06-21 20:49:00,
2013-06-21 16:04:00,90.7,77.0,29.95,SW,219,2.0,13.0,64,0.00,,,0.00,weatherlink.com 1.10,2013-06-21 21:04:00,
2013-06-21 16:19:00,90.7,76.0,29.95,South,173,6.0,15.0,62,0.00,,,0.00,weatherlink.com 1.10,2013-06-21 21:19:00,
2013-06-21 16:34:00,89.9,75.0,29.94,South,185,7.0,15.0,62,0.00,,,0.00,weatherlink.com 1.10,2013-06-21 21:34:00,
2013-06-21 16:49:00,89.7,75.0,29.94,South,190,10.0,15.0,63,0.00,,,0.00,weatherlink.com 1.10,2013-06-21 21:49:00,
2013-06-21 17:04:00,89.7,74.0,29.94,SW,219,6.0,15.0,61,0.00,,,0.00,weatherlink.com 1.10,2013-06-21 22:04:00,
2013-06-21 17:19:00,89.6,76.0,29.93,SSW,212,3.0,17.0,64,0.00,,,0.00,weatherlink.com 1.10,2013-06-21 22:19:00,
2013-06-21 17:34:00,89.1,75.0,29.92,SSW,196,6.0,15.0,63,0.00,,,0.00,weatherlink.com 1.10,2013-06-21 22:34:00,
2013-06-21 17:49:00,89.3,75.0,29.93,SSE,150,7.0,14.0,63,0.00,,,0.00,weatherlink.com 1.10,2013-06-21 22:49:00,
2013-06-21 18:04:00,89.2,75.0,29.93,SSE,165,11.0,15.0,64,0.00,,,0.00,weatherlink.com 1.10,2013-06-21 23:04:00,
2013-06-21 18:19:00,88.4,76.0,29.93,SW,217,7.0,14.0,66,0.00,,,0.00,weatherlink.com 1.10,2013-06-21 23:19:00,
2013-06-21 18:34:00,88.1,75.0,29.93,SSE,151,5.0,13.0,66,0.00,,,0.00,weatherlink.com 1.10,2013-06-21 23:34:00,
2013-06-21 18:49:00,87.6,76.0,29.94,SSE,151,6.0,13.0,68,0.00,,,0.00,weatherlink.com 1.10,2013-06-21 23:49:00,
2013-06-21 19:04:00,87.0,76.0,29.94,SSE,150,5.0,12.0,70,0.00,,,0.00,weatherlink.com 1.10,2013-06-22 00:04:00,
2013-06-21 19:34:00,85.7,76.0,29.94,SSE,150,6.0,11.0,72,0.00,,,0.00,weatherlink.com 1.10,2013-06-22 00:34:00,
2013-06-21 19:49:00,85.2,75.0,29.93,South,188,2.0,9.0,72,0.00,,,0.00,weatherlink.com 1.10,2013-06-22 00:49:00,
2013-06-21 20:04:00,84.6,75.0,29.93,SSE,167,6.0,12.0,72,0.00,,,0.00,weatherlink.com 1.10,2013-06-22 01:04:00,
2013-06-21 20:19:00,84.0,74.0,29.92,South,180,7.0,11.0,72,0.00,,,0.00,weatherlink.com 1.10,2013-06-22 01:19:00,
2013-06-21 20:34:00,83.6,74.0,29.92,South,183,5.0,11.0,72,0.00,,,0.00,weatherlink.com 1.10,2013-06-22 01:34:00,
2013-06-21 20:50:00,83.1,74.0,29.91,South,174,6.0,10.0,73,0.00,,,0.00,weatherlink.com 1.10,2013-06-22 01:50:00,
2013-06-21 21:05:00,82.6,74.0,29.91,SSE,159,5.0,9.0,74,0.00,,,0.00,weatherlink.com 1.10,2013-06-22 02:05:00,
2013-06-21 21:20:00,82.2,74.0,29.92,South,177,8.0,11.0,75,0.00,,,0.00,weatherlink.com 1.10,2013-06-22 02:20:00,
2013-06-21 21:50:00,81.6,74.0,29.94,South,185,7.0,11.0,78,0.00,,,0.00,weatherlink.com 1.10,2013-06-22 02:50:00,
2013-06-21 22:05:00,81.3,74.0,29.95,SSE,150,6.0,13.0,78,0.00,,,0.00,weatherlink.com 1.10,2013-06-22 03:05:00,
2013-06-21 22:20:00,81.1,74.0,29.95,SSW,196,7.0,12.0,79,0.00,,,0.00,weatherlink.com 1.10,2013-06-22 03:20:00,
2013-06-21 22:35:00,81.0,74.0,29.95,South,189,8.0,9.0,79,0.00,,,0.00,weatherlink.com 1.10,2013-06-22 03:35:00,
2013-06-21 22:50:00,80.7,74.0,29.95,SSE,160,3.0,11.0,79,0.00,,,0.00,weatherlink.com 1.10,2013-06-22 03:50:00,
2013-06-21 23:05:00,80.5,73.0,29.96,South,178,6.0,9.0,79,0.00,,,0.00,weatherlink.com 1.10,2013-06-22 04:05:00,
2013-06-21 23:20:00,80.4,73.0,29.95,SW,215,2.0,9.0,79,0.00,,,0.00,weatherlink.com 1.10,2013-06-22 04:20:00,
2013-06-21 23:35:00,80.2,73.0,29.96,SSE,159,3.0,11.0,79,0.00,,,0.00,weatherlink.com 1.10,2013-06-22 04:35:00,
2013-06-21 23:50:00,79.9,73.0,29.96,South,169,1.0,9.0,79,0.00,,,0.00,weatherlink.com 1.10,2013-06-22 04:50:00,